When you browse on this site, cookies collect data to enhance your experience and personalize the content and advertising you see.
Visit our Privacy Policy to learn more. By continuing to use the site, you agree to this use of cookies and data.
  • En España
  • Lista de países
  • Para 7 días
  • Temperatura del agua
  • Mapa Satelital
  • El tiempo en el mapa
  • Informadores
  • user-avatar
    Iniciar sesión

    Tiempo cada hora Mendoza

    Hoy, 21 Marzo, Jueves

    Tiempo Temperatura Precipitaciones Viento Presión Humedad
    00:00 +15°C° 0 mm 2 mps 700 mmHg 46%
    01:00 +15°C° 0 mm 2 mps 700 mmHg 55%
    02:00 +14°C° 0 mm 2 mps 699 mmHg 56%
    03:00 +14°C° 0 mm 2 mps 699 mmHg 58%
    04:00 +14°C° 0 mm 2 mps 699 mmHg 59%
    05:00 +14°C° 0 mm 2 mps 699 mmHg 56%
    06:00 +15°C° 0 mm 1 mps 699 mmHg 53%
    07:00 +16°C° 0 mm 1 mps 699 mmHg 49%
    08:00 +17°C° 0 mm 2 mps 699 mmHg 46%
    09:00 +19°C° 0 mm 2 mps 698 mmHg 44%
    10:00 +20°C° 0 mm 3 mps 698 mmHg 41%
    11:00 +21°C° 0 mm 3 mps 698 mmHg 39%
    12:00 +22°C° 0 mm 3 mps 697 mmHg 38%
    13:00 +23°C° 0 mm 4 mps 697 mmHg 36%
    14:00 +23°C° 0 mm 4 mps 697 mmHg 36%
    15:00 +25°C° 0 mm 3 mps 696 mmHg 35%
    16:00 +25°C° 0 mm 3 mps 696 mmHg 35%
    17:00 +24°C° 0 mm 3 mps 696 mmHg 40%
    18:00 +23°C° 0 mm 2 mps 697 mmHg 44%
    19:00 +20°C° 0 mm 2 mps 697 mmHg 49%
    20:00 +21°C° 0 mm 1 mps 697 mmHg 50%
    21:00 +20°C° 0 mm 1 mps 697 mmHg 52%
    22:00 +20°C° 0 mm 1 mps 698 mmHg 54%
    23:00 +19°C° 0 mm 1 mps 698 mmHg 57%

    Mañana, 22 Marzo, Viernes

    Tiempo Temperatura Precipitaciones Viento Presión Humedad
    00:00 +19°C° 0 mm 1 mps 698 mmHg 59%
    01:00 +18°C° 0 mm 1 mps 698 mmHg 62%
    02:00 +18°C° 0 mm 1 mps 698 mmHg 62%
    03:00 +18°C° 0 mm 1 mps 698 mmHg 62%
    04:00 +18°C° 0 mm 1 mps 698 mmHg 62%
    05:00 +18°C° 0 mm 2 mps 698 mmHg 59%
    06:00 +18°C° 0 mm 2 mps 699 mmHg 57%
    07:00 +19°C° 0 mm 2 mps 700 mmHg 55%
    08:00 +21°C° 0 mm 2 mps 700 mmHg 51%
    09:00 +23°C° 0 mm 2 mps 700 mmHg 47%
    10:00 +24°C° 0 mm 2 mps 700 mmHg 43%
    11:00 +26°C° 0 mm 2 mps 700 mmHg 40%
    12:00 +27°C° 0 mm 3 mps 699 mmHg 37%
    13:00 +28°C° 0 mm 3 mps 699 mmHg 34%
    14:00 +28°C° 0 mm 3 mps 698 mmHg 33%
    15:00 +28°C° 0 mm 3 mps 698 mmHg 32%
    16:00 +28°C° 0 mm 3 mps 698 mmHg 31%
    17:00 +27°C° 0 mm 3 mps 698 mmHg 34%
    18:00 +26°C° 0 mm 2 mps 698 mmHg 37%
    19:00 +24°C° 0 mm 2 mps 699 mmHg 40%
    20:00 +24°C° 0 mm 2 mps 699 mmHg 42%
    21:00 +24°C° 0 mm 2 mps 699 mmHg 43%
    22:00 +23°C° 0 mm 2 mps 699 mmHg 45%
    23:00 +23°C° 0 mm 2 mps 699 mmHg 48%

    Pasado mañana, 23 Marzo, Sábado

    Tiempo Temperatura Precipitaciones Viento Presión Humedad
    00:00 +21°C° 0 mm 2 mps 698 mmHg 51%
    01:00 +20°C° 0 mm 2 mps 698 mmHg 55%
    02:00 +21°C° 0 mm 1 mps 697 mmHg 56%
    03:00 +20°C° 0 mm 1 mps 697 mmHg 57%
    04:00 +20°C° 0 mm 1 mps 697 mmHg 58%
    05:00 +21°C° 0 mm 1 mps 697 mmHg 53%
    06:00 +22°C° 0 mm 1 mps 698 mmHg 49%
    07:00 +23°C° 0 mm 1 mps 698 mmHg 44%
    08:00 +24°C° 0 mm 1 mps 698 mmHg 42%
    09:00 +26°C° 0 mm 2 mps 699 mmHg 39%
    10:00 +27°C° 0 mm 2 mps 699 mmHg 37%
    11:00 +28°C° 0 mm 2 mps 698 mmHg 35%
    12:00 +29°C° 0 mm 2 mps 698 mmHg 33%
    13:00 +30°C° 0 mm 2 mps 698 mmHg 31%
    14:00 +30°C° 0 mm 2 mps 698 mmHg 31%
    15:00 +30°C° 0 mm 2 mps 697 mmHg 30%
    16:00 +30°C° 0 mm 2 mps 697 mmHg 30%
    17:00 +29°C° 0 mm 1 mps 698 mmHg 35%
    18:00 +27°C° 0 mm 1 mps 698 mmHg 39%
    19:00 +24°C° 0 mm 0 mps 699 mmHg 44%
    20:00 +25°C° 0 mm 1 mps 699 mmHg 46%
    21:00 +25°C° 0 mm 1 mps 700 mmHg 47%
    22:00 +25°C° 0 mm 1 mps 700 mmHg 49%
    23:00 +24°C° 0 mm 2 mps 701 mmHg 51%

    24 Marzo, Domingo

    Tiempo Temperatura Precipitaciones Viento Presión Humedad
    00:00 +24°C° 0 mm 2 mps 701 mmHg 53%
    01:00 +24°C° 0 mm 3 mps 701 mmHg 56%
    02:00 +22°C° 0 mm 4 mps 701 mmHg 46%
    03:00 +21°C° 0 mm 5 mps 701 mmHg 36%
    04:00 +21°C° 0 mm 6 mps 701 mmHg 26%
    05:00 +20°C° 0 mm 4 mps 701 mmHg 26%
    06:00 +20°C° 0 mm 3 mps 702 mmHg 26%
    07:00 +20°C° 0 mm 2 mps 702 mmHg 26%
    08:00 +21°C° 0 mm 3 mps 702 mmHg 25%
    09:00 +22°C° 0 mm 3 mps 702 mmHg 25%
    10:00 +23°C° 0 mm 4 mps 702 mmHg 24%
    11:00 +25°C° 0 mm 4 mps 701 mmHg 24%
    12:00 +25°C° 0 mm 4 mps 700 mmHg 24%
    13:00 +26°C° 0 mm 3 mps 700 mmHg 24%
    14:00 +26°C° 0 mm 3 mps 700 mmHg 24%
    15:00 +26°C° 0 mm 3 mps 699 mmHg 25%
    16:00 +26°C° 0 mm 3 mps 699 mmHg 25%
    17:00 +25°C° 0 mm 3 mps 700 mmHg 28%
    18:00 +24°C° 0 mm 2 mps 700 mmHg 30%
    19:00 +21°C° 0 mm 2 mps 700 mmHg 32%
    20:00 +21°C° 0 mm 2 mps 701 mmHg 34%
    21:00 +20°C° 0 mm 2 mps 701 mmHg 36%
    22:00 +21°C° 0 mm 1 mps 701 mmHg 38%
    23:00 +19°C° 0 mm 2 mps 701 mmHg 40%

    25 Marzo, Lunes

    Tiempo Temperatura Precipitaciones Viento Presión Humedad
    00:00 +19°C° 0 mm 2 mps 701 mmHg 42%
    01:00 +18°C° 0 mm 2 mps 701 mmHg 44%
    02:00 +17°C° 0 mm 3 mps 700 mmHg 46%
    03:00 +17°C° 0 mm 3 mps 700 mmHg 49%
    04:00 +16°C° 0 mm 3 mps 700 mmHg 51%
    05:00 +16°C° 0 mm 3 mps 700 mmHg 51%
    06:00 +15°C° 0 mm 4 mps 701 mmHg 50%
    07:00 +15°C° 0 mm 4 mps 701 mmHg 50%
    08:00 +18°C° 0 mm 4 mps 701 mmHg 46%
    09:00 +19°C° 0 mm 4 mps 701 mmHg 42%
    10:00 +20°C° 0 mm 4 mps 702 mmHg 38%
    11:00 +21°C° 0 mm 4 mps 701 mmHg 36%
    12:00 +22°C° 0 mm 4 mps 701 mmHg 34%
    13:00 +23°C° 0 mm 4 mps 700 mmHg 32%
    14:00 +23°C° 0 mm 4 mps 700 mmHg 32%
    15:00 +23°C° 0 mm 4 mps 700 mmHg 32%
    16:00 +24°C° 0 mm 3 mps 700 mmHg 32%
    17:00 +22°C° 0 mm 3 mps 700 mmHg 34%
    18:00 +21°C° 0 mm 3 mps 701 mmHg 35%
    19:00 +20°C° 0 mm 3 mps 701 mmHg 37%
    20:00 +19°C° 0 mm 3 mps 702 mmHg 39%
    21:00 +19°C° 0 mm 3 mps 702 mmHg 40%
    22:00 +18°C° 0 mm 3 mps 702 mmHg 42%
    23:00 +18°C° 0 mm 3 mps 702 mmHg 46%

    26 Marzo, Martes

    Tiempo Temperatura Precipitaciones Viento Presión Humedad
    00:00 +17°C° 0 mm 4 mps 702 mmHg 49%
    01:00 +17°C° 0 mm 4 mps 702 mmHg 53%
    02:00 +15°C° 0 mm 4 mps 702 mmHg 56%
    03:00 +15°C° 0 mm 4 mps 701 mmHg 59%
    04:00 +14°C° 0 mm 4 mps 701 mmHg 61%
    05:00 +14°C° 0 mm 4 mps 702 mmHg 63%
    06:00 +14°C° 0 mm 4 mps 702 mmHg 64%
    07:00 +14°C° 0 mm 4 mps 702 mmHg 66%
    08:00 +15°C° 0 mm 4 mps 702 mmHg 67%
    09:00 +15°C° 0 mm 4 mps 702 mmHg 68%
    10:00 +15°C° 0 mm 4 mps 702 mmHg 69%
    11:00 +17°C° 0 mm 4 mps 701 mmHg 67%
    12:00 +17°C° 0 mm 4 mps 701 mmHg 65%
    13:00 +18°C° 0 mm 4 mps 700 mmHg 63%
    14:00 +18°C° 0 mm 4 mps 700 mmHg 65%
    15:00 +17°C° 0 mm 4 mps 700 mmHg 67%
    16:00 +17°C° 0 mm 4 mps 700 mmHg 69%
    17:00 +17°C° 0.1 mm 4 mps 700 mmHg 72%
    18:00 +15°C° 0.1 mm 4 mps 701 mmHg 75%
    19:00 +16°C° 0.1 mm 3 mps 701 mmHg 78%
    20:00 +16°C° 0.2 mm 3 mps 701 mmHg 81%
    21:00 +16°C° 0.2 mm 3 mps 702 mmHg 83%
    22:00 +15°C° 0.2 mm 2 mps 702 mmHg 86%
    23:00 +15°C° 0.1 mm 2 mps 701 mmHg 87%
    Mostrar más